Year,Month,Day,Hour,Minute,Value (Times are PST for temperature in C)
2009,08,14,00,00,11.90
2009,08,14,00,06,11.90
2009,08,14,00,07,11.90
2009,08,14,00,08,11.90
2009,08,14,00,09,11.90
2009,08,14,00,10,11.90
2009,08,14,00,11,11.90
2009,08,14,00,12,11.90
2009,08,14,00,13,11.90
2009,08,14,00,14,11.90
2009,08,14,00,15,11.90
2009,08,14,00,16,11.90
2009,08,14,00,17,11.90
2009,08,14,00,18,11.90
2009,08,14,00,19,11.90
2009,08,14,00,20,11.90
2009,08,14,00,21,11.90
2009,08,14,00,22,11.90
2009,08,14,00,23,11.90
2009,08,14,00,24,11.90
2009,08,14,00,25,11.90
2009,08,14,00,26,11.90
2009,08,14,00,27,11.90
2009,08,14,00,28,11.90
2009,08,14,00,29,11.90
2009,08,14,00,30,11.90
2009,08,14,00,31,11.80
2009,08,14,00,32,11.80
2009,08,14,00,33,11.80
2009,08,14,00,34,11.80
2009,08,14,00,35,11.80
2009,08,14,00,36,11.80
2009,08,14,00,37,11.80
2009,08,14,00,38,11.80
2009,08,14,00,39,11.80
2009,08,14,00,40,11.80
2009,08,14,00,41,11.80
2009,08,14,00,42,11.80
2009,08,14,00,43,11.80
2009,08,14,00,44,11.80
2009,08,14,00,45,11.80
2009,08,14,00,46,11.80
2009,08,14,00,47,11.80
2009,08,14,00,48,11.80
2009,08,14,00,49,11.80
2009,08,14,00,50,11.80
2009,08,14,00,51,11.80
2009,08,14,00,52,11.80
2009,08,14,00,53,11.80
2009,08,14,00,54,11.80
2009,08,14,00,55,11.80
2009,08,14,00,56,11.80
2009,08,14,00,57,11.80
2009,08,14,00,58,11.80
2009,08,14,00,59,11.80
2009,08,14,01,00,11.80
2009,08,14,01,01,11.70
2009,08,14,01,02,11.70
2009,08,14,01,03,11.70
2009,08,14,01,04,11.70
2009,08,14,01,05,11.70
2009,08,14,01,06,11.70
2009,08,14,01,07,11.70
2009,08,14,01,08,11.70
2009,08,14,01,09,11.70
2009,08,14,01,10,11.70
2009,08,14,01,11,11.70
2009,08,14,01,12,11.70
2009,08,14,01,13,11.70
2009,08,14,01,14,11.70
2009,08,14,01,15,11.70
2009,08,14,01,16,11.70
2009,08,14,01,17,11.70
2009,08,14,01,18,11.70
2009,08,14,01,19,11.70
2009,08,14,01,20,11.70
2009,08,14,01,21,11.70
2009,08,14,01,22,11.70
2009,08,14,01,23,11.70
2009,08,14,01,24,11.70
2009,08,14,01,25,11.70
2009,08,14,01,26,11.70
2009,08,14,01,27,11.70
2009,08,14,01,28,11.70
2009,08,14,01,29,11.70
2009,08,14,01,30,11.80
2009,08,14,01,31,11.80
2009,08,14,01,32,11.80
2009,08,14,01,33,11.80
2009,08,14,01,34,11.80
2009,08,14,01,35,11.80
2009,08,14,01,36,11.80
2009,08,14,01,37,11.80
2009,08,14,01,38,11.80
2009,08,14,01,39,11.80
2009,08,14,01,40,11.80
2009,08,14,01,41,11.80
2009,08,14,01,42,11.80
2009,08,14,01,43,11.80
2009,08,14,01,44,11.80
2009,08,14,01,45,11.80
2009,08,14,01,46,11.80
2009,08,14,01,47,11.80
2009,08,14,01,48,11.80
2009,08,14,01,49,11.80
2009,08,14,01,50,11.80
2009,08,14,01,51,11.80
2009,08,14,01,52,11.80
2009,08,14,01,53,11.80
2009,08,14,01,54,11.80
2009,08,14,01,55,11.90
2009,08,14,01,56,11.90
2009,08,14,01,57,11.90
2009,08,14,01,58,11.90
2009,08,14,01,59,11.90
2009,08,14,02,00,11.90
2009,08,14,02,01,11.90
2009,08,14,02,02,11.90
2009,08,14,02,03,11.90
2009,08,14,02,04,11.90
2009,08,14,02,05,11.90
2009,08,14,02,06,11.90
2009,08,14,02,07,11.90
2009,08,14,02,08,11.90
2009,08,14,02,09,12.00
2009,08,14,02,10,12.00
2009,08,14,02,11,12.00
2009,08,14,02,12,12.00
2009,08,14,02,13,12.00
2009,08,14,02,14,12.00
2009,08,14,02,15,12.00
2009,08,14,02,16,12.00
2009,08,14,02,17,12.00
2009,08,14,02,18,12.00
2009,08,14,02,19,12.00
2009,08,14,02,20,12.00
2009,08,14,02,21,12.00
2009,08,14,02,22,12.00
2009,08,14,02,23,12.00
2009,08,14,02,24,12.00
2009,08,14,02,25,12.10
2009,08,14,02,26,12.10
2009,08,14,02,27,12.10
2009,08,14,02,28,12.10
2009,08,14,02,29,12.10
2009,08,14,02,30,12.10
2009,08,14,02,31,12.10
2009,08,14,02,32,12.10
2009,08,14,02,33,12.10
2009,08,14,02,34,12.00
2009,08,14,02,35,12.00
2009,08,14,02,36,12.00
2009,08,14,02,37,12.10
2009,08,14,02,38,12.10
2009,08,14,02,39,12.10
2009,08,14,02,40,12.10
2009,08,14,02,41,12.10
2009,08,14,02,42,12.10
2009,08,14,02,43,12.10
2009,08,14,02,44,12.10
2009,08,14,02,45,12.10
2009,08,14,02,46,12.10
2009,08,14,02,47,12.10
2009,08,14,02,48,12.10
2009,08,14,02,49,12.10
2009,08,14,02,50,12.10
2009,08,14,02,51,12.20
2009,08,14,02,52,12.20
2009,08,14,02,53,12.20
2009,08,14,02,54,12.20
2009,08,14,02,55,12.20
2009,08,14,02,56,12.20
2009,08,14,02,57,12.20
2009,08,14,02,58,12.20
2009,08,14,02,59,12.20
2009,08,14,03,00,12.20
2009,08,14,03,01,12.20
2009,08,14,03,02,12.20
2009,08,14,03,03,12.20
2009,08,14,03,04,12.20
2009,08,14,03,05,12.20
2009,08,14,03,06,12.30
2009,08,14,03,07,12.30
2009,08,14,03,08,12.30
2009,08,14,03,09,12.30
2009,08,14,03,10,12.30
2009,08,14,03,11,12.30
2009,08,14,03,12,12.30
2009,08,14,03,13,12.30
2009,08,14,03,14,12.30
2009,08,14,03,15,12.30
2009,08,14,03,16,12.30
2009,08,14,03,17,12.30
2009,08,14,03,18,12.30
2009,08,14,03,19,12.30
2009,08,14,03,20,12.30
2009,08,14,03,21,12.30
2009,08,14,03,22,12.30
2009,08,14,03,23,12.30
2009,08,14,03,24,12.30
2009,08,14,03,25,12.30
2009,08,14,03,26,12.30
2009,08,14,03,27,12.30
2009,08,14,03,28,12.30
2009,08,14,03,29,12.30
2009,08,14,03,30,12.30
2009,08,14,03,31,12.30
2009,08,14,03,32,12.30
2009,08,14,03,33,12.30
2009,08,14,03,34,12.30
2009,08,14,03,35,12.30
2009,08,14,03,36,12.30
2009,08,14,03,37,12.30
2009,08,14,03,38,12.30
2009,08,14,03,39,12.30
2009,08,14,03,40,12.30
2009,08,14,03,41,12.30
2009,08,14,03,42,12.30
2009,08,14,03,43,12.30
2009,08,14,03,44,12.30
2009,08,14,03,45,12.40
2009,08,14,03,46,12.40
2009,08,14,03,47,12.40
2009,08,14,03,48,12.40
2009,08,14,03,49,12.40
2009,08,14,03,50,12.40
2009,08,14,03,51,12.40
2009,08,14,03,52,12.40
2009,08,14,03,53,12.50
2009,08,14,03,54,12.50
2009,08,14,03,55,12.50
2009,08,14,03,56,12.60
2009,08,14,03,57,12.60
2009,08,14,03,58,12.60
2009,08,14,03,59,12.70
2009,08,14,04,00,12.70
2009,08,14,04,01,12.70
2009,08,14,04,02,12.70
2009,08,14,04,03,12.80
2009,08,14,04,04,12.80
2009,08,14,04,05,12.80
2009,08,14,04,06,12.90
2009,08,14,04,07,12.90
2009,08,14,04,08,12.90
2009,08,14,04,09,13.00
2009,08,14,04,10,13.00
2009,08,14,04,11,13.00
2009,08,14,04,12,13.10
2009,08,14,04,13,13.10
2009,08,14,04,14,13.10
2009,08,14,04,15,13.10
2009,08,14,04,16,13.20
2009,08,14,04,17,13.20
2009,08,14,04,18,13.20
2009,08,14,04,19,13.20
2009,08,14,04,20,13.20
2009,08,14,04,21,13.20
2009,08,14,04,22,13.20
2009,08,14,04,23,13.20
2009,08,14,04,24,13.20
2009,08,14,04,25,13.20
2009,08,14,04,26,13.30
2009,08,14,04,27,13.30
2009,08,14,04,28,13.30
2009,08,14,04,29,13.30
2009,08,14,04,30,13.30
2009,08,14,04,31,13.30
2009,08,14,04,32,13.30
2009,08,14,04,33,13.30
2009,08,14,04,34,13.30
2009,08,14,04,35,13.30
2009,08,14,04,36,13.30
2009,08,14,04,37,13.30
2009,08,14,04,38,13.30
2009,08,14,04,39,13.30
2009,08,14,04,40,13.30
2009,08,14,04,41,13.30
2009,08,14,04,42,13.30
2009,08,14,04,43,13.30
2009,08,14,04,44,13.30
2009,08,14,04,45,13.30
2009,08,14,04,46,13.30
2009,08,14,04,47,13.30
2009,08,14,04,48,13.30
2009,08,14,04,49,13.30
2009,08,14,04,50,13.30
2009,08,14,04,51,13.30
2009,08,14,04,52,13.30
2009,08,14,04,53,13.30
2009,08,14,04,54,13.30
2009,08,14,04,55,13.30
2009,08,14,04,56,13.30
2009,08,14,04,57,13.30
2009,08,14,04,58,13.30
2009,08,14,04,59,13.30
2009,08,14,05,00,13.30
2009,08,14,05,01,13.30
2009,08,14,05,02,13.30
2009,08,14,05,03,13.30
2009,08,14,05,04,13.30
2009,08,14,05,05,13.30
2009,08,14,05,06,13.30
2009,08,14,05,07,13.30
2009,08,14,05,08,13.30
2009,08,14,05,09,13.30
2009,08,14,05,10,13.30
2009,08,14,05,11,13.30
2009,08,14,05,12,13.30
2009,08,14,05,13,13.40
2009,08,14,05,14,13.40
2009,08,14,05,15,13.40
2009,08,14,05,16,13.40
2009,08,14,05,17,13.40
2009,08,14,05,18,13.40
2009,08,14,05,19,13.40
2009,08,14,05,20,13.40
2009,08,14,05,21,13.40
2009,08,14,05,22,13.40
2009,08,14,05,23,13.40
2009,08,14,05,24,13.40
2009,08,14,05,25,13.40
2009,08,14,05,26,13.40
2009,08,14,05,27,13.40
2009,08,14,05,28,13.40
2009,08,14,05,29,13.40
2009,08,14,05,30,13.40
2009,08,14,05,31,13.50
2009,08,14,05,32,13.40
2009,08,14,05,33,13.40
2009,08,14,05,34,13.40
2009,08,14,05,35,13.40
2009,08,14,05,36,13.40
2009,08,14,05,37,13.40
2009,08,14,05,38,13.40
2009,08,14,05,39,13.40
2009,08,14,05,40,13.40
2009,08,14,05,41,13.40
2009,08,14,05,42,13.40
2009,08,14,05,43,13.40
2009,08,14,05,44,13.40
2009,08,14,05,45,13.40
2009,08,14,05,46,13.30
2009,08,14,05,47,13.30
2009,08,14,05,48,13.30
2009,08,14,05,49,13.30
2009,08,14,05,50,13.30
2009,08,14,05,51,13.30
2009,08,14,05,52,13.30
2009,08,14,05,53,13.30
2009,08,14,05,54,13.30
2009,08,14,05,55,13.30
2009,08,14,05,56,13.30
2009,08,14,05,57,13.30
2009,08,14,05,58,13.30
2009,08,14,05,59,13.30
2009,08,14,06,00,13.30
2009,08,14,06,01,13.20
2009,08,14,06,02,13.20
2009,08,14,06,03,13.20
2009,08,14,06,04,13.20
2009,08,14,06,05,13.20
2009,08,14,06,06,13.20
2009,08,14,06,07,13.20
2009,08,14,06,08,13.20
2009,08,14,06,09,13.10
2009,08,14,06,10,13.10
2009,08,14,06,11,13.10
2009,08,14,06,12,13.10
2009,08,14,06,13,13.10
2009,08,14,06,14,13.10
2009,08,14,06,15,13.10
2009,08,14,06,16,13.10
2009,08,14,06,17,13.10
2009,08,14,06,18,13.10
2009,08,14,06,19,13.10
2009,08,14,06,20,13.10
2009,08,14,06,21,13.10
2009,08,14,06,22,13.10
2009,08,14,06,23,13.10
2009,08,14,06,24,13.10
2009,08,14,06,25,13.10
2009,08,14,06,26,13.10
2009,08,14,06,27,13.10
2009,08,14,06,28,13.10
2009,08,14,06,29,13.10
2009,08,14,06,30,13.10
2009,08,14,06,31,13.10
2009,08,14,06,32,13.00
2009,08,14,06,33,13.00
2009,08,14,06,34,13.00
2009,08,14,06,35,13.00
2009,08,14,06,36,13.00
2009,08,14,06,37,13.00
2009,08,14,06,38,13.00
2009,08,14,06,39,13.00
2009,08,14,06,40,13.00
2009,08,14,06,41,13.00
2009,08,14,06,42,13.00
2009,08,14,06,43,13.00
2009,08,14,06,44,13.00
2009,08,14,06,45,13.00
2009,08,14,06,46,13.00
2009,08,14,06,47,13.00
2009,08,14,06,48,13.10
2009,08,14,06,49,13.10
2009,08,14,06,50,13.10
2009,08,14,06,51,13.10
2009,08,14,06,52,13.10
2009,08,14,06,53,13.10
2009,08,14,06,54,13.10
2009,08,14,06,55,13.10
2009,08,14,06,56,13.10
2009,08,14,06,57,13.10
2009,08,14,06,58,13.10
2009,08,14,06,59,13.20
2009,08,14,07,00,13.20
2009,08,14,07,01,13.20
2009,08,14,07,02,13.20
2009,08,14,07,03,13.20
2009,08,14,07,04,13.20
2009,08,14,07,05,13.20
2009,08,14,07,06,13.20
2009,08,14,07,07,13.30
2009,08,14,07,08,13.30
2009,08,14,07,09,13.30
2009,08,14,07,10,13.30
2009,08,14,07,11,13.30
2009,08,14,07,12,13.30
2009,08,14,07,13,13.30
2009,08,14,07,14,13.30
2009,08,14,07,15,13.30
2009,08,14,07,16,13.30
2009,08,14,07,17,13.30
2009,08,14,07,18,13.30
2009,08,14,07,19,13.30
2009,08,14,07,20,13.30
2009,08,14,07,21,13.30
2009,08,14,07,22,13.40
2009,08,14,07,23,13.50
2009,08,14,07,24,13.50
2009,08,14,07,25,13.50
2009,08,14,07,26,13.50
2009,08,14,07,27,13.60
2009,08,14,07,28,13.60
2009,08,14,07,29,13.60
2009,08,14,07,30,13.60
2009,08,14,07,31,13.70
2009,08,14,07,32,13.70
2009,08,14,07,33,13.70
2009,08,14,07,34,13.70
2009,08,14,07,35,13.70
2009,08,14,07,36,13.70
2009,08,14,07,37,13.80
2009,08,14,07,38,13.80
2009,08,14,07,39,13.80
2009,08,14,07,40,13.80
2009,08,14,07,41,13.90
2009,08,14,07,42,13.90
2009,08,14,07,43,13.90
2009,08,14,07,44,13.90
2009,08,14,07,45,13.90
2009,08,14,07,46,14.00
2009,08,14,07,47,14.00
2009,08,14,07,48,14.00
2009,08,14,07,49,14.00
2009,08,14,07,50,14.00
2009,08,14,07,51,14.00
2009,08,14,07,52,14.00
2009,08,14,07,53,14.00
2009,08,14,07,54,14.00
2009,08,14,07,55,14.00
2009,08,14,07,56,14.00
2009,08,14,07,57,14.00
2009,08,14,07,58,14.00
2009,08,14,07,59,14.00
2009,08,14,08,00,14.10
2009,08,14,08,01,14.10
2009,08,14,08,02,14.10
2009,08,14,08,03,14.10
2009,08,14,08,04,14.10
2009,08,14,08,05,14.10
2009,08,14,08,06,14.10
2009,08,14,08,07,14.10
2009,08,14,08,08,14.10
2009,08,14,08,09,14.10
2009,08,14,08,10,14.10
2009,08,14,08,11,14.20
2009,08,14,08,12,14.20
2009,08,14,08,13,14.20
2009,08,14,08,14,14.20
2009,08,14,08,15,14.20
2009,08,14,08,16,14.20
2009,08,14,08,17,14.20
2009,08,14,08,18,14.20
2009,08,14,08,19,14.20
2009,08,14,08,20,14.30
2009,08,14,08,21,14.30
2009,08,14,08,22,14.30
2009,08,14,08,23,14.30
2009,08,14,08,24,14.30
2009,08,14,08,25,14.40
2009,08,14,08,26,14.40
2009,08,14,08,27,14.40
2009,08,14,08,28,14.40
2009,08,14,08,29,14.40
2009,08,14,08,30,14.50
2009,08,14,08,31,14.50
2009,08,14,08,32,14.50
2009,08,14,08,33,14.50
2009,08,14,08,34,14.60
2009,08,14,08,35,14.60
2009,08,14,08,36,14.60
2009,08,14,08,37,14.60
2009,08,14,08,38,14.60
2009,08,14,08,39,14.60
2009,08,14,08,40,14.60
2009,08,14,08,41,14.70
2009,08,14,08,42,14.70
2009,08,14,08,43,14.70
2009,08,14,08,44,14.70
2009,08,14,08,45,14.70
2009,08,14,08,46,14.70
2009,08,14,08,47,14.80
2009,08,14,08,48,14.80
2009,08,14,08,49,14.80
2009,08,14,08,50,14.80
2009,08,14,08,51,14.80
2009,08,14,08,52,14.80
2009,08,14,08,53,14.80
2009,08,14,08,54,14.80
2009,08,14,08,55,14.80
2009,08,14,08,56,14.80
2009,08,14,08,57,14.80
2009,08,14,08,58,14.80
2009,08,14,08,59,14.80
2009,08,14,09,00,14.80
2009,08,14,09,01,14.90
2009,08,14,09,02,14.90
2009,08,14,09,03,14.90
2009,08,14,09,04,14.90
2009,08,14,09,05,14.90
2009,08,14,09,06,15.00
2009,08,14,09,07,15.00
2009,08,14,09,08,15.00
2009,08,14,09,09,15.00
2009,08,14,09,10,15.10
2009,08,14,09,11,15.10
2009,08,14,09,12,15.10
2009,08,14,09,13,15.10
2009,08,14,09,14,15.20
2009,08,14,09,15,15.20
2009,08,14,09,16,15.20
2009,08,14,09,17,15.20
2009,08,14,09,18,15.20
2009,08,14,09,19,15.30
2009,08,14,09,20,15.30
2009,08,14,09,21,15.30
2009,08,14,09,22,15.30
2009,08,14,09,23,15.30
2009,08,14,09,24,15.30
2009,08,14,09,25,15.30
2009,08,14,09,26,15.30
2009,08,14,09,27,15.30
2009,08,14,09,28,15.30
2009,08,14,09,29,15.30
2009,08,14,09,30,15.30
2009,08,14,09,31,15.30
2009,08,14,09,32,15.40
2009,08,14,09,33,15.40
2009,08,14,09,34,15.40
2009,08,14,09,35,15.40
2009,08,14,09,36,15.40
2009,08,14,09,37,15.50
2009,08,14,09,38,15.50
2009,08,14,09,39,15.50
2009,08,14,09,40,15.50
2009,08,14,09,41,15.50
2009,08,14,09,42,15.50
2009,08,14,09,43,15.50
2009,08,14,09,44,15.50
2009,08,14,09,45,15.50
2009,08,14,09,46,15.50
2009,08,14,09,47,15.50
2009,08,14,09,48,15.50
2009,08,14,09,49,15.50
2009,08,14,09,50,15.50
2009,08,14,09,51,15.50
2009,08,14,09,52,15.50
2009,08,14,09,53,15.50
2009,08,14,09,54,15.60
2009,08,14,09,55,15.60
2009,08,14,09,56,15.60
2009,08,14,09,57,15.60
2009,08,14,09,58,15.60
2009,08,14,09,59,15.60
2009,08,14,10,00,15.60
2009,08,14,10,01,15.60
2009,08,14,10,02,15.70
2009,08,14,10,03,15.70
2009,08,14,10,04,15.70
2009,08,14,10,05,15.80
2009,08,14,10,06,15.80
2009,08,14,10,07,15.80
2009,08,14,10,08,15.80
2009,08,14,10,09,15.80
2009,08,14,10,10,15.80
2009,08,14,10,11,15.90
2009,08,14,10,12,15.90
2009,08,14,10,13,15.90
2009,08,14,10,14,15.90
2009,08,14,10,15,15.90
2009,08,14,10,16,15.90
2009,08,14,10,17,15.80
2009,08,14,10,18,15.80
2009,08,14,10,19,15.90
2009,08,14,10,20,15.90
2009,08,14,10,21,15.90
2009,08,14,10,22,15.90
2009,08,14,10,23,15.90
2009,08,14,10,24,16.00
2009,08,14,10,25,16.10
2009,08,14,10,26,16.10
2009,08,14,10,27,16.10
2009,08,14,10,28,16.10
2009,08,14,10,29,16.10
2009,08,14,10,30,16.20
2009,08,14,10,31,16.20
2009,08,14,10,32,16.30
2009,08,14,10,33,16.30
2009,08,14,10,34,16.30
2009,08,14,10,35,16.40
2009,08,14,10,36,16.40
2009,08,14,10,37,16.40
2009,08,14,10,38,16.50
2009,08,14,10,39,16.60
2009,08,14,10,40,16.70
2009,08,14,10,41,16.70
2009,08,14,10,42,16.80
2009,08,14,10,43,16.80
2009,08,14,10,44,16.80
2009,08,14,10,45,16.90
2009,08,14,10,46,16.90
2009,08,14,10,47,17.00
2009,08,14,10,48,17.00
2009,08,14,10,49,17.00
2009,08,14,10,50,17.00
2009,08,14,10,51,17.00
2009,08,14,10,52,17.00
2009,08,14,10,53,16.90
2009,08,14,10,54,16.90
2009,08,14,10,55,16.90
2009,08,14,10,56,17.00
2009,08,14,10,57,17.00
2009,08,14,10,58,17.00
2009,08,14,10,59,17.00
2009,08,14,11,00,17.00
2009,08,14,11,01,17.00
2009,08,14,11,02,16.90
2009,08,14,11,03,16.90
2009,08,14,11,04,16.90
2009,08,14,11,05,16.90
2009,08,14,11,06,16.90
2009,08,14,11,07,16.90
2009,08,14,11,08,16.90
2009,08,14,11,09,16.90
2009,08,14,11,10,17.00
2009,08,14,11,11,17.00
2009,08,14,11,12,16.90
2009,08,14,11,13,16.80
2009,08,14,11,14,16.80
2009,08,14,11,15,16.80
2009,08,14,11,16,16.80
2009,08,14,11,17,16.80
2009,08,14,11,18,16.80
2009,08,14,11,19,16.80
2009,08,14,11,20,16.90
2009,08,14,11,21,16.90
2009,08,14,11,22,17.00
2009,08,14,11,23,17.00
2009,08,14,11,24,17.10
2009,08,14,11,25,17.10
2009,08,14,11,26,17.20
2009,08,14,11,27,17.20
2009,08,14,11,28,17.30
2009,08,14,11,29,17.30
2009,08,14,11,30,17.30
2009,08,14,11,31,17.30
2009,08,14,11,32,17.30
2009,08,14,11,33,17.30
2009,08,14,11,34,17.20
2009,08,14,11,35,17.20
2009,08,14,11,36,17.20
2009,08,14,11,37,17.30
2009,08,14,11,38,17.30
2009,08,14,11,39,17.20
2009,08,14,11,40,17.10
2009,08,14,11,41,17.00
2009,08,14,11,42,16.90
2009,08,14,11,43,16.80
2009,08,14,11,44,16.80
2009,08,14,11,45,16.80
2009,08,14,11,46,16.70
2009,08,14,11,47,16.80
2009,08,14,11,48,16.80
2009,08,14,11,49,16.90
2009,08,14,11,50,16.90
2009,08,14,11,51,16.90
2009,08,14,11,52,17.00
2009,08,14,11,53,17.00
2009,08,14,11,54,17.00
2009,08,14,11,55,16.90
2009,08,14,11,56,16.90
2009,08,14,11,57,16.90
2009,08,14,11,58,16.90
2009,08,14,11,59,17.00
2009,08,14,12,00,17.00
2009,08,14,12,01,17.00
2009,08,14,12,02,17.00
2009,08,14,12,03,17.00
2009,08,14,12,04,17.10
2009,08,14,12,05,17.10
2009,08,14,12,06,17.10
2009,08,14,12,07,17.10
2009,08,14,12,08,17.20
2009,08,14,12,09,17.20
2009,08,14,12,10,17.30
2009,08,14,12,11,17.30
2009,08,14,12,12,17.40
2009,08,14,12,13,17.40
2009,08,14,12,14,17.50
2009,08,14,12,15,17.50
2009,08,14,12,16,17.60
2009,08,14,12,17,17.70
2009,08,14,12,18,17.70
2009,08,14,12,19,17.80
2009,08,14,12,20,17.70
2009,08,14,12,21,17.60
2009,08,14,12,22,17.60
2009,08,14,12,23,17.60
2009,08,14,12,24,17.50
2009,08,14,12,25,17.50
2009,08,14,12,26,17.50
2009,08,14,12,27,17.40
2009,08,14,12,28,17.30
2009,08,14,12,29,17.30
2009,08,14,12,30,17.30
2009,08,14,12,31,17.30
2009,08,14,12,32,17.30
2009,08,14,12,33,17.30
2009,08,14,12,34,17.30
2009,08,14,12,35,17.30
2009,08,14,12,36,17.40
2009,08,14,12,37,17.40
2009,08,14,12,38,17.50
2009,08,14,12,39,17.50
2009,08,14,12,40,17.60
2009,08,14,12,41,17.70
2009,08,14,12,42,17.70
2009,08,14,12,43,17.80
2009,08,14,12,44,17.80
2009,08,14,12,45,17.80
2009,08,14,12,46,17.80
2009,08,14,12,47,17.80
2009,08,14,12,48,17.80
2009,08,14,12,49,17.90
2009,08,14,12,50,17.90
2009,08,14,12,51,17.90
2009,08,14,12,52,17.90
2009,08,14,12,53,17.90
2009,08,14,12,54,17.90
2009,08,14,12,55,17.90
2009,08,14,12,56,17.80
2009,08,14,12,57,17.80
2009,08,14,12,58,17.80
2009,08,14,12,59,17.80
2009,08,14,13,00,17.80
2009,08,14,13,01,17.80
2009,08,14,13,02,17.80
2009,08,14,13,03,17.80
2009,08,14,13,04,17.80
2009,08,14,13,05,17.80
2009,08,14,13,06,17.80
2009,08,14,13,07,17.80
2009,08,14,13,08,17.90
2009,08,14,13,09,17.90
2009,08,14,13,10,17.90
2009,08,14,13,11,17.90
2009,08,14,13,12,17.90
2009,08,14,13,13,17.90
2009,08,14,13,14,17.90
2009,08,14,13,15,17.90
2009,08,14,13,16,17.90
2009,08,14,13,17,17.90
2009,08,14,13,18,17.90
2009,08,14,13,19,17.90
2009,08,14,13,20,18.00
2009,08,14,13,21,18.10
2009,08,14,13,22,18.10
2009,08,14,13,23,18.20
2009,08,14,13,24,18.20
2009,08,14,13,25,18.40
2009,08,14,13,26,18.40
2009,08,14,13,27,18.40
2009,08,14,13,28,18.40
2009,08,14,13,29,18.40
2009,08,14,13,30,18.40
2009,08,14,13,31,18.40
2009,08,14,13,32,18.30
2009,08,14,13,33,18.30
2009,08,14,13,34,18.40
2009,08,14,13,35,18.40
2009,08,14,13,36,18.50
2009,08,14,13,37,18.60
2009,08,14,13,38,18.60
2009,08,14,13,39,18.70
2009,08,14,13,40,18.70
2009,08,14,13,41,18.80
2009,08,14,13,42,18.90
2009,08,14,13,43,18.90
2009,08,14,13,44,18.90
2009,08,14,13,45,18.80
2009,08,14,13,46,18.80
2009,08,14,13,47,18.80
2009,08,14,13,48,18.90
2009,08,14,13,49,18.90
2009,08,14,13,50,18.80
2009,08,14,13,51,18.80
2009,08,14,13,52,18.80
2009,08,14,13,53,18.80
2009,08,14,13,54,18.80
2009,08,14,13,55,18.90
2009,08,14,13,56,18.90
2009,08,14,13,57,18.90
2009,08,14,13,58,18.90
2009,08,14,13,59,18.90
2009,08,14,14,00,18.90
2009,08,14,14,01,18.90
2009,08,14,14,02,18.90
2009,08,14,14,03,18.90
2009,08,14,14,04,18.90
2009,08,14,14,05,18.80
2009,08,14,14,06,18.80
2009,08,14,14,07,18.80
2009,08,14,14,08,18.90
2009,08,14,14,09,18.90
2009,08,14,14,10,18.90
2009,08,14,14,11,18.90
2009,08,14,14,12,18.90
2009,08,14,14,13,19.00
2009,08,14,14,14,19.10
2009,08,14,14,15,19.30
2009,08,14,14,16,19.40
2009,08,14,14,17,19.60
2009,08,14,14,18,19.70
2009,08,14,14,19,19.80
2009,08,14,14,20,19.90
2009,08,14,14,21,19.90
2009,08,14,14,22,20.10
2009,08,14,14,23,20.10
2009,08,14,14,24,20.20
2009,08,14,14,25,20.20
2009,08,14,14,26,20.20
2009,08,14,14,27,20.20
2009,08,14,14,28,20.20
2009,08,14,14,29,20.30
2009,08,14,14,30,20.40
2009,08,14,14,31,20.30
2009,08,14,14,32,20.20
2009,08,14,14,33,20.30
2009,08,14,14,34,20.30
2009,08,14,14,35,20.30
2009,08,14,14,36,20.40
2009,08,14,14,37,20.50
2009,08,14,14,38,20.60
2009,08,14,14,39,20.50
2009,08,14,14,40,20.50
2009,08,14,14,41,20.40
2009,08,14,14,42,20.40
2009,08,14,14,43,20.50
2009,08,14,14,44,20.50
2009,08,14,14,45,20.50
2009,08,14,14,46,20.50
2009,08,14,14,47,20.60
2009,08,14,14,48,20.70
2009,08,14,14,49,20.70
2009,08,14,14,50,20.80
2009,08,14,14,51,20.80
2009,08,14,14,52,20.80
2009,08,14,14,53,20.90
2009,08,14,14,54,20.90
2009,08,14,14,55,20.90
2009,08,14,14,56,21.00
2009,08,14,14,57,21.10
2009,08,14,14,58,21.00
2009,08,14,14,59,20.80
2009,08,14,15,00,20.70
2009,08,14,15,01,20.70
2009,08,14,15,02,20.60
2009,08,14,15,03,20.50
2009,08,14,15,04,20.30
2009,08,14,15,05,20.20
2009,08,14,15,06,20.20
2009,08,14,15,07,20.20
2009,08,14,15,08,20.20
2009,08,14,15,09,20.20
2009,08,14,15,10,20.40
2009,08,14,15,11,20.50
2009,08,14,15,12,20.50
2009,08,14,15,13,20.60
2009,08,14,15,14,20.70
2009,08,14,15,15,20.70
2009,08,14,15,16,20.90
2009,08,14,15,17,21.00
2009,08,14,15,18,20.90
2009,08,14,15,19,20.90
2009,08,14,15,20,21.00
2009,08,14,15,21,21.00
2009,08,14,15,22,21.10
2009,08,14,15,23,21.10
2009,08,14,15,24,21.00
2009,08,14,15,25,20.90
2009,08,14,15,26,20.80
2009,08,14,15,27,20.70
2009,08,14,15,28,20.60
2009,08,14,15,29,20.50
2009,08,14,15,30,20.40
2009,08,14,15,31,20.40
2009,08,14,15,32,20.40
2009,08,14,15,33,20.40
2009,08,14,15,34,20.50
2009,08,14,15,35,20.50
2009,08,14,15,36,20.60
2009,08,14,15,37,20.60
2009,08,14,15,38,20.60
2009,08,14,15,39,20.60
2009,08,14,15,40,20.70
2009,08,14,15,41,20.80
2009,08,14,15,42,20.80
2009,08,14,15,43,20.90
2009,08,14,15,44,21.00
2009,08,14,15,45,21.10
2009,08,14,15,46,21.30
2009,08,14,15,47,21.50
2009,08,14,15,48,21.50
2009,08,14,15,49,21.40
2009,08,14,15,50,21.30
2009,08,14,15,51,21.30
2009,08,14,15,52,21.30
2009,08,14,15,53,21.30
2009,08,14,15,54,21.30
2009,08,14,15,55,21.30
2009,08,14,15,56,21.10
2009,08,14,15,57,21.00
2009,08,14,15,58,21.00
2009,08,14,15,59,21.00
2009,08,14,16,00,21.00
2009,08,14,16,01,21.10
2009,08,14,16,02,21.10
2009,08,14,16,03,21.10
2009,08,14,16,04,21.00
2009,08,14,16,05,21.00
2009,08,14,16,06,21.00
2009,08,14,16,07,21.00
2009,08,14,16,08,21.00
2009,08,14,16,09,21.00
2009,08,14,16,10,21.00
2009,08,14,16,11,21.10
2009,08,14,16,12,21.10
2009,08,14,16,13,21.30
2009,08,14,16,14,21.30
2009,08,14,16,15,21.30
2009,08,14,16,16,21.30
2009,08,14,16,17,21.30
2009,08,14,16,18,21.10
2009,08,14,16,19,20.90
2009,08,14,16,20,20.70
2009,08,14,16,21,20.60
2009,08,14,16,22,20.60
2009,08,14,16,23,20.60
2009,08,14,16,24,20.60
2009,08,14,16,25,20.50
2009,08,14,16,26,20.50
2009,08,14,16,27,20.40
2009,08,14,16,28,20.30
2009,08,14,16,29,20.10
2009,08,14,16,30,20.00
2009,08,14,16,31,19.90
2009,08,14,16,32,19.90
2009,08,14,16,33,19.90
2009,08,14,16,34,19.90
2009,08,14,16,35,20.00
2009,08,14,16,36,20.20
2009,08,14,16,37,20.20
2009,08,14,16,38,20.20
2009,08,14,16,39,20.20
2009,08,14,16,40,20.10
2009,08,14,16,41,20.10
2009,08,14,16,42,20.10
2009,08,14,16,43,20.10
2009,08,14,16,44,20.00
2009,08,14,16,45,19.90
2009,08,14,16,46,20.00
2009,08,14,16,47,20.10
2009,08,14,16,48,20.20
2009,08,14,16,49,20.20
2009,08,14,16,50,20.20
2009,08,14,16,51,20.30
2009,08,14,16,52,20.40
2009,08,14,16,53,20.50
2009,08,14,16,54,20.60
2009,08,14,16,55,20.70
2009,08,14,16,56,20.70
2009,08,14,16,57,20.70
2009,08,14,16,58,20.70
2009,08,14,16,59,20.70
2009,08,14,17,00,20.70
2009,08,14,17,01,20.70
2009,08,14,17,02,20.70
2009,08,14,17,03,20.70
2009,08,14,17,04,20.80
2009,08,14,17,05,20.90
2009,08,14,17,06,20.80
2009,08,14,17,07,20.80
2009,08,14,17,08,20.80
2009,08,14,17,09,20.70
2009,08,14,17,10,20.70
2009,08,14,17,11,20.50
2009,08,14,17,12,20.30
2009,08,14,17,13,20.20
2009,08,14,17,14,20.20
2009,08,14,17,15,20.20
2009,08,14,17,16,20.20
2009,08,14,17,17,20.20
2009,08,14,17,18,20.20
2009,08,14,17,19,20.20
2009,08,14,17,20,20.20
2009,08,14,17,21,20.20
2009,08,14,17,22,20.20
2009,08,14,17,23,20.20
2009,08,14,17,24,20.20